QPF
0.00 0.00 0.00 0.00 0.00 0.00 0.00 0.00 0.00 0.00 0.00 0.00 0.00 0.00 0.00 0.00 0.00 0.00 0.00 0.00 0.00 0.00 0.00 0.00 0.01 0.04 0.08 0.10 0.13 0.17 0.25 0.39 0.48 0.53 0.39 0.20 0.10 0.04 0.01 0.00 0.00 0.00 0.00 0.00
0.00 0.00 0.00 0.00 0.00 0.00 0.00 0.00 0.00 0.00 0.00 0.00 0.00 0.00 0.00 0.00 0.00 0.00 0.00 0.00 0.00 0.00 0.00 0.00 0.01 0.03 0.05 0.06 0.07 0.10 0.13 0.18 0.25 0.28 0.22 0.13 0.04 0.01 0.01 0.00 0.00 0.00 0.00 0.00
0.00 0.00 0.00 0.00 0.00 0.00 0.00 0.00 0.00 0.00 0.00 0.00 0.00 0.00 0.00 0.00 0.00 0.00 0.00 0.00 0.00 0.00 0.00 0.00 0.01 0.02 0.03 0.03 0.05 0.08 0.10 0.11 0.14 0.18 0.16 0.10 0.03 0.01 0.00 0.00 0.00 0.00 0.00 0.00
0.00 0.00 0.00 0.00 0.00 0.00 0.00 0.00 0.00 0.00 0.00 0.00 0.00 0.00 0.00 0.00 0.00 0.00 0.00 0.00 0.00 0.00 0.00 0.00 0.00 0.00 0.01 0.02 0.04 0.07 0.08 0.07 0.08 0.12 0.12 0.09 0.05 0.02 0.01 0.00 0.00 0.00 0.00 0.00
0.00 0.00 0.00 0.00 0.00 0.00 0.00 0.00 0.00 0.00 0.00 0.00 0.00 0.00 0.00 0.00 0.00 0.00 0.00 0.00 0.00 0.00 0.00 0.00 0.00 0.00 0.00 0.02 0.04 0.06 0.06 0.06 0.05 0.07 0.09 0.08 0.07 0.05 0.03 0.01 0.00 0.00 0.00 0.00
0.00 0.00 0.00 0.00 0.00 0.00 0.00 0.00 0.00 0.00 0.00 0.00 0.00 0.00 0.00 0.00 0.00 0.00 0.00 0.00 0.00 0.00 0.00 0.00 0.00 0.00 0.00 0.01 0.02 0.04 0.05 0.06 0.06 0.05 0.07 0.08 0.07 0.06 0.04 0.02 0.01 0.00 0.00 0.00
0.00 0.00 0.00 0.00 0.00 0.00 0.00 0.00 0.00 0.00 0.00 0.00 0.00 0.00 0.00 0.00 0.00 0.00 0.00 0.00 0.00 0.00 0.00 0.00 0.00 0.00 0.00 0.00 0.01 0.02 0.03 0.04 0.05 0.05 0.05 0.05 0.06 0.06 0.03 0.01 0.00 0.00 0.00 0.00
0.00 0.00 0.00 0.00 0.00 0.00 0.01 0.00 0.00 0.00 0.00 0.00 0.00 0.00 0.00 0.00 0.00 0.00 0.00 0.00 0.00 0.00 0.00 0.00 0.00 0.00 0.00 0.00 0.00 0.01 0.02 0.03 0.05 0.04 0.02 0.02 0.04 0.05 0.02 0.01 0.00 0.00 0.00 0.00
0.00 0.00 0.00 0.00 0.00 0.00 0.00 0.01 0.00 0.00 0.00 0.00 0.00 0.00 0.00 0.00 0.00 0.00 0.00 0.00 0.00 0.00 0.00 0.00 0.00 0.00 0.00 0.01 0.01 0.01 0.02 0.02 0.03 0.02 0.01 0.01 0.03 0.03 0.02 0.01 0.00 0.00 0.00 0.00
0.00 0.00 0.00 0.00 0.01 0.01 0.00 0.00 0.00 0.00 0.00 0.00 0.00 0.00 0.00 0.00 0.00 0.00 0.00 0.00 0.00 0.00 0.00 0.00 0.00 0.00 0.01 0.01 0.01 0.01 0.02 0.02 0.01 0.01 0.01 0.02 0.03 0.03 0.02 0.01 0.00 0.00 0.00 0.00
0.01 0.02 0.02 0.01 0.01 0.00 0.00 0.00 0.00 0.00 0.00 0.00 0.00 0.00 0.00 0.00 0.00 0.00 0.00 0.00 0.00 0.00 0.00 0.00 0.00 0.00 0.00 0.01 0.01 0.02 0.03 0.02 0.01 0.01 0.01 0.02 0.03 0.04 0.04 0.05 0.01 0.01 0.01 0.00
0.05 0.05 0.06 0.04 0.02 0.01 0.00 0.00 0.00 0.00 0.01 0.01 0.01 0.01 0.01 0.00 0.00 0.00 0.00 0.00 0.00 0.00 0.00 0.00 0.00 0.00 0.00 0.01 0.01 0.02 0.02 0.01 0.01 0.01 0.01 0.01 0.01 0.01 0.01 0.02 0.00 0.00 0.00 0.00
0.05 0.04 0.04 0.04 0.02 0.02 0.01 0.01 0.01 0.01 0.01 0.01 0.02 0.02 0.01 0.01 0.01 0.00 0.00 0.00 0.00 0.00 0.00 0.00 0.00 0.00 0.00 0.00 0.01 0.01 0.01 0.01 0.01 0.00 0.00 0.00 0.01 0.01 0.01 0.00 0.00 0.00 0.00 0.00
0.03 0.04 0.04 0.04 0.03 0.02 0.01 0.01 0.01 0.01 0.02 0.02 0.02 0.03 0.03 0.03 0.02 0.02 0.01 0.01 0.00 0.00 0.00 0.00 0.00 0.00 0.00 0.00 0.00 0.00 0.01 0.01 0.00 0.00 0.00 0.00 0.00 0.01 0.02 0.01 0.00 0.00 0.00 0.00
0.02 0.03 0.04 0.03 0.02 0.01 0.01 0.01 0.01 0.01 0.02 0.03 0.03 0.03 0.03 0.03 0.03 0.03 0.03 0.02 0.01 0.00 0.00 0.00 0.00 0.00 0.00 0.00 0.00 0.00 0.00 0.00 0.00 0.00 0.00 0.00 0.00 0.01 0.01 0.01 0.01 0.00 0.00 0.00
0.01 0.01 0.01 0.01 0.01 0.01 0.01 0.01 0.01 0.01 0.02 0.02 0.02 0.03 0.03 0.03 0.03 0.04 0.04 0.03 0.02 0.01 0.00 0.00 0.00 0.00 0.00 0.00 0.00 0.00 0.00 0.00 0.00 0.00 0.00 0.00 0.00 0.00 0.01 0.01 0.01 0.01 0.00 0.00
0.02 0.01 0.00 0.00 0.01 0.01 0.01 0.01 0.01 0.01 0.01 0.01 0.02 0.03 0.03 0.04 0.05 0.05 0.06 0.06 0.04 0.03 0.01 0.01 0.00 0.00 0.00 0.00 0.00 0.00 0.00 0.00 0.00 0.00 0.00 0.00 0.00 0.00 0.00 0.00 0.00 0.00 0.00 0.00
0.01 0.01 0.00 0.00 0.01 0.01 0.01 0.01 0.01 0.01 0.02 0.03 0.05 0.06 0.07 0.08 0.09 0.09 0.10 0.11 0.10 0.07 0.04 0.02 0.01 0.01 0.00 0.00 0.00 0.00 0.00 0.00 0.00 0.00 0.00 0.00 0.00 0.00 0.00 0.00 0.00 0.00 0.00 0.00
0.00 0.00 0.00 0.00 0.00 0.00 0.00 0.00 0.00 0.01 0.02 0.05 0.08 0.11 0.13 0.14 0.15 0.15 0.15 0.15 0.15 0.13 0.09 0.05 0.03 0.01 0.01 0.00 0.00 0.00 0.00 0.00 0.00 0.00 0.00 0.00 0.00 0.00 0.00 0.00 0.00 0.00 0.00 0.00
0.00 0.00 0.00 0.00 0.00 0.00 0.00 0.00 0.01 0.01 0.01 0.04 0.06 0.09 0.11 0.13 0.15 0.16 0.17 0.18 0.18 0.18 0.16 0.12 0.06 0.02 0.01 0.01 0.00 0.00 0.00 0.00 0.00 0.00 0.00 0.00 0.00 0.00 0.00 0.00 0.00 0.00 0.00 0.00
0.00 0.00 0.00 0.00 0.00 0.00 0.00 0.01 0.01 0.01 0.01 0.02 0.05 0.06 0.08 0.11 0.14 0.16 0.18 0.17 0.19 0.23 0.23 0.16 0.07 0.03 0.01 0.01 0.00 0.00 0.00 0.00 0.00 0.00 0.00 0.00 0.00 0.00 0.00 0.00 0.00 0.00 0.00 0.00
0.00 0.00 0.00 0.00 0.00 0.00 0.00 0.01 0.01 0.02 0.02 0.03 0.04 0.05 0.06 0.07 0.10 0.13 0.15 0.16 0.19 0.25 0.25 0.18 0.09 0.03 0.01 0.01 0.00 0.00 0.00 0.00 0.00 0.00 0.00 0.00 0.00 0.00 0.00 0.00 0.00 0.00 0.00 0.00
0.00 0.00 0.00 0.00 0.00 0.01 0.01 0.01 0.02 0.03 0.03 0.04 0.05 0.06 0.06 0.05 0.06 0.08 0.10 0.11 0.15 0.20 0.22 0.18 0.11 0.06 0.02 0.01 0.00 0.00 0.00 0.00 0.00 0.00 0.00 0.00 0.00 0.00 0.00 0.00 0.00 0.00 0.00 0.00
0.00 0.00 0.00 0.00 0.01 0.01 0.02 0.02 0.03 0.04 0.04 0.05 0.05 0.06 0.07 0.05 0.04 0.04 0.06 0.09 0.11 0.14 0.17 0.16 0.12 0.07 0.04 0.01 0.00 0.00 0.00 0.00 0.00 0.00 0.00 0.00 0.00 0.00 0.00 0.00 0.00 0.00 0.00 0.00
0.01 0.01 0.01 0.01 0.03 0.05 0.07 0.08 0.08 0.07 0.07 0.07 0.06 0.05 0.05 0.05 0.03 0.03 0.04 0.06 0.09 0.10 0.12 0.13 0.11 0.08 0.04 0.02 0.01 0.00 0.00 0.00 0.00 0.00 0.00 0.00 0.00 0.00 0.00 0.00 0.00 0.00 0.00 0.00
0.01 0.01 0.01 0.02 0.05 0.10 0.15 0.18 0.19 0.16 0.14 0.11 0.07 0.04 0.03 0.03 0.03 0.03 0.04 0.04 0.06 0.07 0.09 0.10 0.10 0.07 0.04 0.02 0.01 0.00 0.00 0.00 0.00 0.00 0.00 0.00 0.00 0.00 0.00 0.00 0.00 0.00 0.00 0.00
0.01 0.01 0.02 0.05 0.09 0.15 0.22 0.27 0.28 0.24 0.18 0.13 0.07 0.04 0.03 0.02 0.02 0.02 0.03 0.04 0.05 0.06 0.07 0.08 0.08 0.07 0.04 0.02 0.01 0.01 0.01 0.00 0.00 0.00 0.00 0.00 0.00 0.00 0.00 0.00 0.00 0.00 0.00 0.00
MSLP
1014.19 1014.07 1013.94 1013.80 1013.65 1013.46 1013.21 1012.88 1012.46 1011.96 1011.39 1010.79 1010.20 1009.67 1009.24 1008.93 1008.75 1008.70 1008.74 1008.85 1008.98 1009.10 1009.19 1009.24 1009.25 1009.24 1009.23 1009.25 1009.32 1009.45 1009.64 1009.87 1010.13 1010.40 1010.65 1010.87 1011.04 1011.16 1011.24 1011.28 1011.32 1011.35 1011.39 1011.47
1014.22 1013.99 1013.74 1013.46 1013.17 1012.86 1012.51 1012.12 1011.66 1011.16 1010.62 1010.08 1009.55 1009.09 1008.71 1008.45 1008.30 1008.27 1008.33 1008.44 1008.58 1008.72 1008.83 1008.91 1008.95 1008.97 1009.00 1009.04 1009.13 1009.28 1009.49 1009.74 1010.04 1010.35 1010.66 1010.94 1011.18 1011.37 1011.51 1011.62 1011.69 1011.76 1011.83 1011.91
1014.17 1013.86 1013.51 1013.14 1012.75 1012.35 1011.93 1011.48 1011.01 1010.51 1010.00 1009.49 1009.00 1008.58 1008.25 1008.01 1007.88 1007.85 1007.91 1008.03 1008.18 1008.33 1008.46 1008.57 1008.64 1008.69 1008.73 1008.79 1008.89 1009.03 1009.24 1009.50 1009.81 1010.15 1010.50 1010.83 1011.15 1011.42 1011.64 1011.82 1011.97 1012.09 1012.19 1012.30
1014.01 1013.65 1013.26 1012.83 1012.39 1011.94 1011.48 1011.01 1010.52 1010.02 1009.52 1009.03 1008.56 1008.16 1007.83 1007.60 1007.47 1007.43 1007.48 1007.60 1007.75 1007.92 1008.08 1008.21 1008.32 1008.39 1008.46 1008.52 1008.62 1008.75 1008.93 1009.18 1009.48 1009.82 1010.19 1010.57 1010.94 1011.29 1011.60 1011.86 1012.09 1012.28 1012.44 1012.59
1013.75 1013.40 1012.99 1012.56 1012.11 1011.65 1011.17 1010.68 1010.18 1009.68 1009.17 1008.67 1008.20 1007.79 1007.44 1007.19 1007.03 1006.98 1007.01 1007.13 1007.29 1007.48 1007.67 1007.84 1007.99 1008.10 1008.19 1008.27 1008.35 1008.47 1008.62 1008.83 1009.10 1009.42 1009.79 1010.19 1010.60 1011.01 1011.40 1011.75 1012.07 1012.34 1012.57 1012.76
1013.48 1013.15 1012.78 1012.37 1011.93 1011.48 1011.00 1010.50 1009.98 1009.45 1008.92 1008.39 1007.89 1007.43 1007.04 1006.75 1006.55 1006.47 1006.48 1006.59 1006.77 1006.98 1007.22 1007.44 1007.64 1007.80 1007.93 1008.04 1008.13 1008.22 1008.35 1008.52 1008.74 1009.03 1009.38 1009.77 1010.20 1010.66 1011.10 1011.54 1011.94 1012.29 1012.60 1012.86
1013.31 1013.03 1012.70 1012.33 1011.91 1011.46 1010.97 1010.45 1009.90 1009.33 1008.74 1008.15 1007.59 1007.07 1006.62 1006.27 1006.02 1005.89 1005.88 1005.98 1006.17 1006.41 1006.70 1006.98 1007.25 1007.48 1007.67 1007.82 1007.93 1008.03 1008.14 1008.27 1008.46 1008.70 1009.01 1009.39 1009.82 1010.29 1010.78 1011.27 1011.75 1012.18 1012.57 1012.90
1013.34 1013.12 1012.84 1012.50 1012.10 1011.63 1011.12 1010.55 1009.94 1009.30 1008.63 1007.96 1007.32 1006.72 1006.19 1005.76 1005.45 1005.27 1005.22 1005.30 1005.50 1005.77 1006.10 1006.46 1006.80 1007.11 1007.37 1007.58 1007.74 1007.87 1007.98 1008.10 1008.26 1008.46 1008.74 1009.08 1009.50 1009.97 1010.49 1011.02 1011.56 1012.07 1012.53 1012.94
1013.70 1013.53 1013.27 1012.94 1012.51 1012.01 1011.43 1010.79 1010.10 1009.36 1008.60 1007.84 1007.10 1006.41 1005.79 1005.28 1004.90 1004.65 1004.55 1004.61 1004.79 1005.08 1005.45 1005.85 1006.27 1006.66 1007.01 1007.30 1007.53 1007.70 1007.85 1007.98 1008.13 1008.31 1008.56 1008.88 1009.27 1009.74 1010.26 1010.83 1011.41 1011.97 1012.50 1012.98
1014.39 1014.24 1013.99 1013.62 1013.14 1012.57 1011.90 1011.16 1010.36 1009.52 1008.66 1007.80 1006.97 1006.18 1005.48 1004.89 1004.42 1004.10 1003.94 1003.94 1004.09 1004.37 1004.74 1005.18 1005.65 1006.12 1006.55 1006.92 1007.24 1007.49 1007.69 1007.86 1008.02 1008.21 1008.45 1008.75 1009.13 1009.59 1010.11 1010.69 1011.29 1011.90 1012.48 1013.01
1015.36 1015.20 1014.91 1014.47 1013.90 1013.22 1012.44 1011.59 1010.69 1009.75 1008.80 1007.85 1006.94 1006.09 1005.31 1004.63 1004.09 1003.69 1003.45 1003.37 1003.46 1003.69 1004.03 1004.47 1004.96 1005.47 1005.97 1006.43 1006.82 1007.16 1007.44 1007.67 1007.89 1008.11 1008.35 1008.66 1009.03 1009.48 1009.99 1010.57 1011.19 1011.82 1012.44 1013.00
1016.45 1016.24 1015.86 1015.32 1014.64 1013.84 1012.95 1012.00 1011.00 1009.99 1008.98 1007.98 1007.03 1006.12 1005.29 1004.56 1003.93 1003.45 1003.11 1002.94 1002.93 1003.08 1003.36 1003.75 1004.23 1004.75 1005.28 1005.80 1006.27 1006.69 1007.06 1007.37 1007.65 1007.92 1008.20 1008.52 1008.90 1009.34 1009.86 1010.43 1011.05 1011.69 1012.32 1012.90
1017.45 1017.14 1016.64 1015.97 1015.17 1014.25 1013.27 1012.24 1011.20 1010.15 1009.13 1008.13 1007.17 1006.25 1005.40 1004.63 1003.95 1003.39 1002.95 1002.67 1002.54 1002.57 1002.75 1003.07 1003.48 1003.98 1004.52 1005.06 1005.59 1006.08 1006.52 1006.92 1007.27 1007.60 1007.93 1008.28 1008.68 1009.13 1009.64 1010.21 1010.82 1011.45 1012.08 1012.67
1018.12 1017.68 1017.04 1016.24 1015.33 1014.32 1013.28 1012.22 1011.17 1010.15 1009.16 1008.21 1007.30 1006.42 1005.59 1004.80 1004.09 1003.46 1002.93 1002.53 1002.28 1002.18 1002.24 1002.44 1002.77 1003.20 1003.70 1004.25 1004.80 1005.34 1005.85 1006.31 1006.73 1007.13 1007.51 1007.90 1008.32 1008.78 1009.30 1009.86 1010.45 1011.07 1011.69 1012.26
1018.30 1017.71 1016.93 1016.02 1015.01 1013.96 1012.90 1011.86 1010.87 1009.92 1009.02 1008.16 1007.33 1006.53 1005.75 1004.99 1004.26 1003.58 1002.98 1002.48 1002.11 1001.88 1001.80 1001.88 1002.10 1002.45 1002.90 1003.41 1003.96 1004.52 1005.06 1005.57 1006.05 1006.50 1006.93 1007.36 1007.81 1008.29 1008.80 1009.36 1009.94 1010.54 1011.14 1011.70
1017.92 1017.18 1016.28 1015.27 1014.22 1013.16 1012.13 1011.16 1010.26 1009.43 1008.65 1007.92 1007.21 1006.51 1005.80 1005.09 1004.37 1003.68 1003.02 1002.45 1001.97 1001.63 1001.44 1001.40 1001.51 1001.77 1002.14 1002.60 1003.12 1003.67 1004.22 1004.76 1005.27 1005.75 1006.22 1006.68 1007.15 1007.64 1008.16 1008.71 1009.29 1009.87 1010.45 1011.00
1017.04 1016.16 1015.16 1014.10 1013.04 1012.01 1011.05 1010.18 1009.40 1008.71 1008.08 1007.48 1006.90 1006.30 1005.68 1005.02 1004.33 1003.64 1002.97 1002.35 1001.81 1001.39 1001.11 1000.97 1001.00 1001.16 1001.46 1001.86 1002.33 1002.85 1003.38 1003.91 1004.43 1004.93 1005.41 1005.89 1006.38 1006.88 1007.41 1007.96 1008.52 1009.10 1009.66 1010.19
1015.79 1014.80 1013.75 1012.68 1011.64 1010.67 1009.81 1009.06 1008.40 1007.84 1007.34 1006.86 1006.39 1005.88 1005.33 1004.73 1004.09 1003.43 1002.76 1002.13 1001.57 1001.11 1000.78 1000.59 1000.54 1000.64 1000.87 1001.20 1001.62 1002.08 1002.58 1003.08 1003.58 1004.07 1004.56 1005.05 1005.54 1006.05 1006.58 1007.12 1007.68 1008.25 1008.80 1009.32
1014.38 1013.34 1012.27 1011.22 1010.24 1009.35 1008.58 1007.93 1007.39 1006.92 1006.51 1006.11 1005.71 1005.26 1004.77 1004.21 1003.61 1002.99 1002.35 1001.75 1001.21 1000.75 1000.42 1000.21 1000.14 1000.19 1000.37 1000.65 1001.00 1001.40 1001.84 1002.30 1002.76 1003.23 1003.70 1004.18 1004.67 1005.18 1005.71 1006.26 1006.81 1007.37 1007.91 1008.43
1013.04 1011.98 1010.93 1009.93 1009.02 1008.21 1007.53 1006.95 1006.46 1006.05 1005.67 1005.30 1004.91 1004.49 1004.01 1003.49 1002.92 1002.33 1001.75 1001.20 1000.71 1000.31 1000.00 999.82 999.75 999.79 999.93 1000.16 1000.45 1000.80 1001.18 1001.58 1001.99 1002.42 1002.87 1003.33 1003.81 1004.32 1004.85 1005.39 1005.94 1006.49 1007.02 1007.52
1011.91 1010.88 1009.87 1008.94 1008.10 1007.36 1006.72 1006.17 1005.70 1005.27 1004.87 1004.47 1004.05 1003.60 1003.11 1002.59 1002.05 1001.50 1000.98 1000.50 1000.09 999.76 999.52 999.38 999.34 999.39 999.51 999.71 999.95 1000.24 1000.55 1000.89 1001.26 1001.64 1002.06 1002.50 1002.98 1003.48 1004.00 1004.55 1005.09 1005.63 1006.15 1006.63
1011.06 1010.08 1009.14 1008.28 1007.49 1006.79 1006.16 1005.60 1005.09 1004.60 1004.13 1003.65 1003.15 1002.64 1002.11 1001.57 1001.04 1000.54 1000.08 999.69 999.36 999.12 998.97 998.89 998.89 998.95 999.07 999.24 999.44 999.67 999.93 1000.21 1000.53 1000.87 1001.26 1001.69 1002.16 1002.66 1003.18 1003.72 1004.27 1004.79 1005.29 1005.74
1010.47 1009.56 1008.69 1007.88 1007.13 1006.44 1005.79 1005.17 1004.58 1004.00 1003.41 1002.82 1002.22 1001.62 1001.04 1000.48 999.96 999.50 999.10 998.79 998.56 998.41 998.33 998.32 998.36 998.45 998.56 998.70 998.86 999.05 999.25 999.49 999.76 1000.08 1000.45 1000.87 1001.34 1001.84 1002.38 1002.92 1003.46 1003.97 1004.44 1004.87
1010.05 1009.22 1008.41 1007.64 1006.90 1006.19 1005.49 1004.79 1004.09 1003.39 1002.67 1001.96 1001.25 1000.57 999.93 999.34 998.83 998.41 998.07 997.84 997.69 997.62 997.61 997.66 997.73 997.83 997.94 998.06 998.18 998.32 998.49 998.68 998.93 999.23 999.59 1000.02 1000.50 1001.02 1001.56 1002.12 1002.65 1003.16 1003.61 1004.01
1009.72 1008.95 1008.18 1007.43 1006.68 1005.92 1005.15 1004.36 1003.55 1002.72 1001.88 1001.04 1000.24 999.48 998.80 998.20 997.70 997.31 997.03 996.86 996.78 996.77 996.82 996.90 997.00 997.09 997.19 997.28 997.37 997.47 997.60 997.77 998.00 998.30 998.67 999.11 999.62 1000.16 1000.73 1001.30 1001.85 1002.36 1002.80 1003.18
1009.39 1008.65 1007.91 1007.16 1006.38 1005.56 1004.71 1003.82 1002.90 1001.95 1001.01 1000.08 999.20 998.39 997.68 997.08 996.60 996.24 996.01 995.89 995.85 995.88 995.96 996.05 996.15 996.23 996.30 996.36 996.42 996.49 996.60 996.76 996.99 997.30 997.69 998.16 998.69 999.28 999.88 1000.48 1001.05 1001.56 1002.01 1002.39
1009.03 1008.31 1007.57 1006.79 1005.96 1005.08 1004.15 1003.17 1002.15 1001.12 1000.09 999.10 998.18 997.34 996.62 996.02 995.56 995.24 995.04 994.94 994.93 994.98 995.05 995.14 995.21 995.27 995.31 995.34 995.37 995.42 995.52 995.68 995.92 996.25 996.67 997.18 997.76 998.38 999.02 999.66 1000.26 1000.80 1001.27 1001.66
Thickness
5708 5710 5706 5702 5699 5697 5689 5685 5677 5682 5684 5690 5693 5692 5690 5688 5685 5682 5680 5679 5677 5673 5669 5663 5657 5651 5645 5639 5632 5626 5621 5617 5615 5613 5611 5610 5610 5613 5616 5620 5624 5626 5628 5629
5698 5704 5704 5699 5700 5697 5693 5691 5688 5684 5684 5696 5696 5692 5686 5681 5678 5676 5675 5674 5671 5667 5663 5657 5651 5646 5641 5635 5630 5625 5621 5618 5616 5613 5609 5607 5607 5609 5611 5614 5617 5619 5621 5621
5690 5701 5693 5690 5699 5696 5694 5696 5690 5681 5687 5693 5686 5683 5681 5677 5675 5673 5672 5671 5667 5663 5659 5654 5648 5643 5638 5634 5630 5626 5622 5621 5620 5616 5611 5608 5606 5606 5608 5609 5610 5611 5612 5612
5687 5684 5671 5698 5708 5698 5689 5689 5690 5689 5688 5686 5682 5681 5680 5676 5671 5670 5669 5666 5663 5660 5657 5652 5647 5643 5637 5634 5629 5626 5624 5622 5621 5618 5613 5607 5604 5603 5604 5604 5604 5605 5605 5603
5681 5677 5681 5695 5696 5686 5676 5677 5687 5683 5679 5677 5678 5674 5679 5683 5674 5669 5666 5663 5660 5658 5655 5650 5645 5641 5636 5632 5629 5626 5623 5622 5621 5618 5613 5606 5602 5600 5599 5598 5598 5597 5596 5594
5675 5661 5659 5683 5684 5683 5673 5668 5681 5673 5667 5666 5665 5659 5669 5675 5670 5667 5663 5659 5656 5654 5651 5646 5642 5638 5633 5630 5627 5625 5623 5621 5619 5617 5613 5607 5602 5599 5595 5593 5591 5591 5588 5587
5669 5663 5671 5684 5679 5672 5648 5654 5665 5663 5659 5657 5658 5659 5666 5668 5666 5662 5657 5655 5652 5650 5646 5643 5639 5634 5629 5628 5627 5626 5623 5620 5617 5615 5612 5607 5602 5597 5593 5590 5588 5586 5583 5581
5659 5648 5655 5672 5662 5647 5643 5652 5654 5656 5657 5657 5658 5661 5663 5663 5662 5657 5651 5649 5647 5645 5642 5640 5637 5631 5628 5627 5627 5626 5623 5619 5616 5614 5612 5607 5601 5596 5592 5589 5585 5582 5580 5578
5654 5652 5660 5657 5648 5645 5643 5641 5643 5647 5651 5652 5654 5656 5658 5658 5658 5656 5650 5646 5644 5642 5639 5636 5633 5630 5627 5627 5626 5623 5621 5618 5615 5614 5611 5607 5601 5595 5591 5588 5587 5584 5579 5576
5647 5650 5646 5642 5635 5629 5628 5628 5631 5635 5639 5643 5645 5650 5652 5654 5654 5653 5649 5644 5641 5638 5637 5634 5631 5629 5627 5626 5623 5621 5618 5615 5613 5611 5609 5605 5601 5597 5594 5591 5589 5585 5580 5578
5632 5627 5620 5617 5608 5607 5610 5613 5617 5619 5622 5625 5629 5634 5639 5643 5647 5648 5646 5642 5638 5636 5635 5633 5629 5627 5625 5623 5620 5617 5615 5613 5611 5610 5608 5603 5599 5596 5594 5592 5591 5586 5582 5577
5594 5582 5583 5583 5583 5586 5589 5592 5596 5600 5605 5609 5612 5615 5620 5626 5632 5637 5639 5638 5634 5633 5632 5630 5627 5624 5622 5620 5617 5614 5611 5609 5609 5608 5605 5602 5597 5591 5581 5583 5579 5576 5574 5572
5563 5563 5563 5561 5564 5566 5569 5573 5578 5581 5586 5592 5597 5600 5603 5608 5614 5622 5629 5631 5629 5629 5628 5627 5624 5621 5619 5616 5613 5610 5609 5608 5607 5605 5602 5600 5597 5592 5586 5575 5569 5567 5565 5563
5551 5549 5548 5548 5550 5553 5555 5558 5562 5566 5570 5574 5579 5584 5588 5592 5597 5603 5611 5618 5622 5623 5623 5622 5620 5617 5616 5613 5609 5607 5606 5604 5602 5601 5600 5598 5595 5592 5588 5583 5575 5569 5559 5555
5540 5537 5536 5538 5540 5541 5542 5544 5546 5551 5554 5559 5563 5567 5571 5575 5580 5585 5593 5602 5610 5615 5618 5618 5615 5613 5612 5609 5605 5603 5602 5602 5598 5598 5596 5595 5593 5590 5586 5582 5579 5574 5567 5554
5530 5528 5527 5527 5527 5528 5528 5527 5527 5530 5534 5539 5543 5550 5555 5559 5566 5571 5575 5582 5593 5603 5610 5612 5612 5611 5608 5604 5600 5598 5598 5596 5593 5593 5592 5591 5589 5587 5583 5579 5575 5572 5569 5563
5516 5517 5518 5518 5515 5512 5510 5507 5506 5509 5513 5517 5522 5528 5537 5545 5552 5557 5562 5566 5575 5588 5598 5604 5607 5607 5605 5601 5598 5597 5596 5592 5585 5587 5589 5589 5587 5585 5582 5578 5574 5572 5570 5567
5507 5504 5502 5498 5496 5494 5493 5491 5489 5488 5491 5495 5499 5506 5515 5526 5536 5544 5549 5554 5561 5573 5585 5594 5600 5601 5601 5599 5596 5597 5595 5593 5585 5586 5586 5585 5584 5582 5579 5577 5574 5571 5569 5563
5499 5494 5491 5488 5484 5480 5479 5478 5477 5476 5476 5477 5480 5485 5495 5506 5519 5529 5537 5542 5548 5557 5569 5579 5586 5593 5596 5596 5594 5594 5594 5592 5586 5585 5584 5580 5578 5579 5578 5575 5573 5571 5569 5565
5492 5488 5485 5481 5478 5473 5470 5469 5468 5468 5468 5466 5467 5472 5480 5492 5504 5515 5524 5531 5537 5543 5552 5562 5574 5584 5591 5593 5589 5593 5593 5591 5588 5585 5583 5581 5578 5577 5576 5575 5573 5571 5569 5566
5482 5479 5475 5473 5470 5469 5467 5465 5465 5465 5464 5462 5462 5465 5472 5482 5493 5503 5513 5523 5532 5535 5541 5549 5562 5575 5584 5589 5583 5592 5593 5592 5590 5587 5584 5582 5579 5577 5576 5574 5572 5571 5568 5566
5469 5467 5465 5465 5465 5465 5465 5464 5464 5463 5462 5461 5461 5463 5467 5474 5483 5494 5506 5516 5526 5529 5533 5543 5555 5567 5577 5582 5584 5591 5593 5593 5591 5590 5587 5584 5582 5579 5577 5575 5572 5570 5568 5566
5461 5460 5460 5461 5462 5464 5465 5464 5462 5460 5459 5458 5459 5461 5463 5468 5475 5485 5500 5512 5520 5525 5530 5539 5548 5557 5566 5574 5583 5590 5594 5594 5593 5592 5590 5587 5584 5582 5579 5577 5574 5572 5570 5567
5458 5458 5458 5460 5461 5461 5462 5460 5457 5453 5451 5451 5452 5455 5458 5463 5472 5484 5497 5507 5515 5522 5530 5537 5542 5551 5557 5570 5581 5589 5595 5596 5596 5594 5593 5590 5587 5585 5582 5580 5577 5574 5572 5569
5457 5457 5458 5458 5457 5456 5453 5450 5448 5447 5445 5445 5446 5449 5453 5460 5468 5480 5493 5506 5515 5522 5531 5538 5543 5550 5557 5568 5578 5587 5594 5598 5599 5597 5595 5593 5590 5587 5585 5582 5579 5577 5575 5572
5459 5458 5458 5455 5452 5448 5446 5444 5444 5445 5445 5446 5447 5448 5452 5459 5468 5479 5492 5506 5518 5526 5536 5544 5550 5554 5562 5570 5578 5585 5590 5594 5595 5594 5595 5594 5592 5590 5587 5584 5581 5579 5577 5575
5463 5462 5461 5460 5456 5452 5449 5448 5451 5455 5456 5456 5456 5456 5458 5464 5473 5484 5497 5510 5522 5533 5542 5549 5556 5561 5568 5575 5580 5585 5587 5590 5592 5592 5592 5592 5591 5589 5588 5585 5583 5580 5578 5576